311P/PanSTARRS (2024)

Japanese version
Home page
Updated on August 10, 2025

---------------------------------------------------------------------

* Profile

* Pictures

* Orbital Elements

Epoch 2025 May 5.0 TT = JDT 2460800.5
T 2024 Jan. 1.88903 TT                                  Alexandersen
q   1.9358452            (2000.0)            P               Q
n   0.30439545     Peri.  144.28661     +0.44471948     -0.89157504
a   2.1886549      Node   279.16924     +0.80032851     +0.43844511
e   0.1155091      Incl.    4.97124     +0.40211798     +0.11340121
P   3.24
From 269 observations 2005 Jan. 17-2025 May 2, mean residual 0".4.

* Magnitudes Graph

        H = 17.5  G = 0.15

---------------------------------------------------------------------

The orbital elements are published on M.P.E.C. 2025-J72.
The magnitudes graphs are made with Comet for Windows.

---------------------------------------------------------------------

Copyright(C) Seiichi Yoshida (comet@aerith.net). All rights reserved.